Geroi Shipki — EOIB — position and weather

sailwx.info

Track history (hours):
 
Tides and Currents Weather Stations Pressure Air Temp Water Temp Dewpoint Dewpoint Depression Visibility Wind Speed Wind Dir Waves Ship Positions

Geroi Shipki

Last reported at 2014-Aug-28 06:31 UTC. Time now 2014-Aug-28 07:27 UTC.
Position N 40°45' E 029°39'.

Length 184 m; draft 6.1 m.

Type: Cargo ship. MMSI: 272976000.

Date/timePositionNaut miles runAvg speedWind from/ knotsBaromVisibWave heightAir tempDewpointWater temp
2014-Aug-28 06:31N 40°45' E 029°39'3 0.1
2014-Aug-26 04:04N 40°44' E 029°43'912.5
2014-Aug-26 03:22N 40°45' E 029°31'8 9.9
2014-Aug-26 02:33N 40°44' E 029°21'9 9.1
2014-Aug-26 01:33N 40°46' E 029°09'2 1.0
2014-Aug-25 23:15N 40°48' E 029°07'1 1.2
2014-Aug-25 22:15N 40°47' E 029°08'2 1.0
2014-Aug-25 20:25N 40°47' E 029°11'6 7.0
2014-Aug-25 19:31N 40°50' E 029°03'7 6.9
2014-Aug-25 18:29N 40°55' E 028°56'25 1.2
2014-Aug-24 22:06N 41°18' E 029°05'14 9.3
2014-Aug-24 20:32N 41°25' E 029°23'9 9.6
2014-Aug-24 19:33N 41°28' E 029°34'10 9.5
2014-Aug-24 18:30N 41°31' E 029°47'  
2014-Aug-19 08:09N 43°55' E 034°33'30 8.2
2014-Aug-19 04:30N 44°04' E 033°53'  
Track history (hours):
 
Tides and Currents Weather Stations Pressure Air Temp Water Temp Dewpoint Dewpoint Depression Visibility Wind Speed Wind Dir Waves Ship Positions

Geroi Shipki

Last reported at 2014-Aug-28 06:31 UTC. Time now 2014-Aug-28 07:27 UTC.
Position N 40°45' E 029°39'.

Length 184 m; draft 6.1 m.

Type: Cargo ship. MMSI: 272976000.

Date/timePositionNaut miles runAvg speedWind from/ knotsBaromVisibWave heightAir tempDewpointWater temp
2014-Aug-28 06:31N 40°45' E 029°39'3 0.1
2014-Aug-26 04:04N 40°44' E 029°43'912.5
2014-Aug-26 03:22N 40°45' E 029°31'8 9.9
2014-Aug-26 02:33N 40°44' E 029°21'9 9.1
2014-Aug-26 01:33N 40°46' E 029°09'2 1.0
2014-Aug-25 23:15N 40°48' E 029°07'1 1.2
2014-Aug-25 22:15N 40°47' E 029°08'2 1.0
2014-Aug-25 20:25N 40°47' E 029°11'6 7.0
2014-Aug-25 19:31N 40°50' E 029°03'7 6.9
2014-Aug-25 18:29N 40°55' E 028°56'25 1.2
2014-Aug-24 22:06N 41°18' E 029°05'14 9.3
2014-Aug-24 20:32N 41°25' E 029°23'9 9.6
2014-Aug-24 19:33N 41°28' E 029°34'10 9.5
2014-Aug-24 18:30N 41°31' E 029°47'  
2014-Aug-19 08:09N 43°55' E 034°33'30 8.2
2014-Aug-19 04:30N 44°04' E 033°53'  

Dump ship's entire track history